Regional Weather Roundup
Issued by NWS

Home | Current Version | Previous Version | Graphics & Text | Print | Product List | Glossary On
Versions: 1 2 3 4 5 6 7 8 9 10 11 12 13 14 15 16 17 18 19 20 21 22 23 24 25 26 27 28 29 30 31 32 33 34 35 36 37 38 39 40 41 42 43 44 45 46 47 48 49 50
000
ASUS43 KMKX 172121
RWRWI

WISCONSIN REGIONAL WEATHER ROUNDUP
NATIONAL WEATHER SERVICE MILWAUKEE/SULLIVAN WI
400 PM CDT THU APR 17 2014

NOTE: "FAIR" INDICATES FEW OR NO CLOUDS BELOW 12,000 FEET WITH NO
SIGNIFICANT WEATHER AND/OR OBSTRUCTIONS TO VISIBILITY.

WIZ001-002-006>008-014>016-023>028-172200-
NORTHWEST WISCONSIN

CITY           SKY/WX    TMP DP  RH WIND       PRES   REMARKS
SUPERIOR ARPT  CLOUDY    38  25  59 NW8       30.26R WCI  32
ASHLAND        PTSUNNY   37  27  67 NW7       30.24R WCI  32
HAYWARD        CLOUDY    34  27  75 VRB5      30.23R WCI  30
SIREN          CLOUDY    37  25  60 N5        30.26R WCI  33
RICE LAKE      CLOUDY    36  27  69 NW7       30.27R WCI  30
LADYSMITH      CLOUDY    36  30  80 NW9       30.24R WCI  29
EAU CLAIRE     CLOUDY    40  30  67 NW8       30.25R WCI  34
MENOMONIE      CLOUDY    38  29  69 W9        30.27R WCI  32
NEW RICHMOND   CLOUDY    38  28  67 NW10      30.27S WCI  31
OSCEOLA        PTSUNNY   39  26  60 NW8       30.30S WCI  33
$$

WIZ003>005-009-010-017-018-172200-
NORTH CENTRAL WISCONSIN

CITY           SKY/WX    TMP DP  RH WIND       PRES   REMARKS
WOODRUFF       CLOUDY    37  32  84 NW8       30.17R WCI  30
RHINELANDER    CLOUDY    35  31  85 W8        30.17R WCI  29
EAGLE RIVER    CLOUDY    35  32  90 W6        30.15S WCI  30
LAND O LAKES   CLOUDY    35  33  90 W6        30.16R WCI  30
PHILLIPS       CLOUDY    34  30  85 NW6       30.19R WCI  29
TOMAHAWK       CLOUDY    35  31  86 W7        30.19R WCI  29
MEDFORD        CLOUDY    34  31  88 W7        30.20R WCI  28
MERRILL        CLOUDY    37  33  84 CALM      30.19R
$$

WIZ029-030-035-036-043>047-172200-
CENTRAL WISCONSIN

CITY           SKY/WX    TMP DP  RH WIND       PRES   REMARKS
WAUSAU         CLOUDY    40  33  76 NW13      30.18R WCI  32
MOSINEE        CLOUDY    39  36  87 W12       30.20R WCI  32
MARSHFIELD     CLOUDY    39  33  79 NW13      30.21R WCI  31
STEVENS POINT  CLOUDY    41  33  73 W10G16    30.20R
WAUPACA        PTSUNNY   52  36  54 NW3G9     30.18S
WAUTOMA        MOSUNNY   50  37  60 NW13      30.19R
WISC RAPIDS    CLOUDY    42  34  73 W13       30.22R
CAMP DOUGLAS   CLOUDY    43  36  75 W10       30.22R
$$

WIZ011>013-019>022-031-037>040-048>050-172200-
NORTHEAST WISCONSIN

CITY           SKY/WX    TMP DP  RH WIND       PRES   REMARKS
ANTIGO         CLOUDY    37  33  84 W9        30.17S WCI  30
STURGEON BAY   CLOUDY    45  34  65 NW6       30.19R
GREEN BAY      CLOUDY    50  39  66 NW12      30.17R
MANITOWOC      CLOUDY    51  39  63 SW9       30.17S
APPLETON       PTSUNNY   52  36  54 NW7       30.16R
CLINTONVILLE   CLOUDY    46  34  61 NW8       30.18R
OSHKOSH        CLOUDY    54  37  52 NW14      30.16R
$$

WIZ032>034-041-042-053>061-172200-
SOUTHWEST WISCONSIN

CITY           SKY/WX    TMP DP  RH WIND       PRES   REMARKS
LA CROSSE      CLOUDY    42  31  64 NW12      30.25S
SPARTA         CLOUDY    43  32  64 NW9       30.24S
VIROQUA        CLOUDY    44  34  67 NW9       30.22R
BOSCOBEL       MOSUNNY   52  33  48 W6        30.22S
PRAIRIE DU CHI MOSUNNY   48  33  55 W7        30.24S
PLATTEVILLE    FAIR      52  35  53 W9        30.21F
$$

WIZ056-057-062-063-064-067-068-172200-
SOUTH CENTRAL WISCONSIN

CITY           SKY/WX    TMP DP  RH WIND       PRES   REMARKS
BARABOO/DELLS  CLOUDY    49  36  59 W8        30.20R
LONE ROCK      PTSUNNY   54  36  50 W10       30.19F
WATERTOWN      PTSUNNY   54  38  56 W8        30.19S
MADISON        PTSUNNY   55  36  48 W8        30.19S
MIDDLETON      FAIR      55  33  44 W5        30.20S
MONROE         MOSUNNY   55  36  48 NW9       30.19S
JANESVILLE     MOSUNNY   55  36  47 W12       30.19S
$$

WIZ051-052-058>065-066-070>072-172200-
SOUTHEAST WISCONSIN

CITY           SKY/WX    TMP DP  RH WIND       PRES   REMARKS
MILWAUKEE      PTSUNNY   54  37  52 W9        30.20S
WAUKESHA       CLOUDY    46  37  71 W12       30.20S
MILWAUKEE/TIMM MOSUNNY   52  36  54 W10G17    30.21R
RACINE         MOSUNNY   56  39  53 W9        30.20S
BURLINGTON     MOSUNNY   53  38  56 W7        30.20R
KENOSHA        MOSUNNY   57  40  52 W12       30.19S
FOND DU LAC    CLOUDY    53  39  59 S10       30.16S
SHEBOYGAN      CLOUDY    51  39  63 S8        30.18S
WEST BEND      CLOUDY    50  34  53 SW7G17    30.19S
JUNEAU         CLOUDY    52  35  52 SW7       30.19S
$$

LSZ147-162-172200-
LAKE SUPERIOR

STATION/POSITION TIME  TEMP    WIND        PRES    WAVE
                       AIR SEA DIR/SP/G            HT/PER
                 (UTC) (F)     (DEG/KT/KT) (MB)    (FT/S)
DEVILS ISLAND    2100   33     340/  8/  9 1024.8R
PORT WING        2040   35     260/  7/  9 1024.0S
SAXON HARBOR     2000          300/ 13/ 17 1023.0R
$$

LMZ867-665-643>646-172200-
LAKE MICHIGAN

STATION/POSITION TIME  TEMP    WIND        PRES    WAVE
                       AIR SEA DIR/SP/G            HT/PER
                 (UTC) (F)     (DEG/KT/KT) (MB)    (FT/S)
NORTHPORT PIER   2000   40     150/  5/  6 1021.3S
SISTER BAY       2023           10/ 11/ 12   N/A
KEWAUNEE LAKESHO 2100   38     170/ 10/ 11 1022.2R
SHEBOYGAN LAKESH 2100   52     240/  8/ 10 1022.6R
PORT WASHINGTON  2000   51     270/ 10/ 15 1022.7R
MILWAUKEE LAKESH 2100   52     290/ 10/ 14   N/A
KENOSHA   LAKESH 2100   56     270/ 12/ 16   N/A
$$

TC  - TEMPERATURE IN CELSIUS
VSB - VISIBILITY IN STATUTE MILES
WCI - WIND CHILL INDEX
HX  - HEAT INDEX




USA.gov is the U.S. government's official web portal to all federal, state and local government web resources and services.